QPF
0.00 0.01 0.01 0.00 0.00 0.00 0.00 0.00 0.00 0.00 0.00 0.00 0.00 0.00 0.00 0.00 0.00 0.01 0.02 0.01 0.01 0.00 0.00 0.00 0.00 0.00 0.00 0.00 0.00 0.01 0.01 0.01 0.01
0.01 0.02 0.01 0.00 0.00 0.00 0.00 0.00 0.00 0.00 0.00 0.00 0.00 0.00 0.00 0.01 0.01 0.01 0.02 0.03 0.01 0.00 0.00 0.00 0.00 0.00 0.00 0.00 0.01 0.01 0.01 0.01 0.01
0.04 0.02 0.01 0.00 0.00 0.00 0.00 0.00 0.00 0.00 0.00 0.00 0.00 0.00 0.00 0.00 0.01 0.02 0.01 0.03 0.00 0.00 0.00 0.00 0.00 0.00 0.00 0.02 0.02 0.01 0.00 0.00 0.00
0.03 0.01 0.01 0.00 0.00 0.00 0.00 0.00 0.00 0.00 0.00 0.00 0.00 0.00 0.00 0.00 0.01 0.01 0.00 0.01 0.00 0.00 0.00 0.00 0.00 0.00 0.02 0.03 0.01 0.00 0.00 0.00 0.00
0.02 0.00 0.00 0.00 0.00 0.00 0.00 0.00 0.00 0.00 0.00 0.00 0.00 0.00 0.00 0.00 0.01 0.01 0.01 0.01 0.00 0.00 0.00 0.00 0.00 0.00 0.02 0.01 0.00 0.00 0.00 0.00 0.00
0.00 0.00 0.00 0.00 0.00 0.00 0.00 0.00 0.00 0.00 0.00 0.00 0.00 0.00 0.00 0.00 0.00 0.01 0.02 0.01 0.00 0.00 0.00 0.00 0.00 0.00 0.03 0.01 0.00 0.00 0.00 0.00 0.00
0.00 0.00 0.00 0.00 0.00 0.00 0.00 0.00 0.00 0.00 0.00 0.00 0.00 0.00 0.00 0.00 0.00 0.00 0.02 0.02 0.00 0.00 0.00 0.00 0.00 0.02 0.03 0.01 0.00 0.00 0.00 0.00 0.00
0.00 0.00 0.01 0.00 0.00 0.00 0.00 0.00 0.00 0.00 0.00 0.00 0.00 0.00 0.00 0.00 0.00 0.00 0.01 0.02 0.00 0.00 0.00 0.00 0.00 0.04 0.02 0.00 0.00 0.00 0.00 0.00 0.00
0.00 0.00 0.00 0.00 0.00 0.00 0.00 0.00 0.00 0.00 0.00 0.00 0.00 0.00 0.00 0.00 0.00 0.00 0.00 0.00 0.00 0.00 0.00 0.00 0.01 0.04 0.01 0.00 0.00 0.00 0.00 0.00 0.00
0.00 0.00 0.00 0.00 0.00 0.00 0.00 0.00 0.00 0.00 0.00 0.00 0.00 0.00 0.00 0.00 0.00 0.00 0.00 0.00 0.00 0.00 0.00 0.00 0.02 0.03 0.00 0.00 0.00 0.00 0.00 0.00 0.00
0.00 0.00 0.00 0.00 0.00 0.00 0.00 0.00 0.00 0.00 0.00 0.00 0.00 0.00 0.00 0.00 0.00 0.00 0.00 0.00 0.00 0.00 0.00 0.00 0.03 0.02 0.00 0.00 0.00 0.00 0.00 0.00 0.00
0.00 0.00 0.00 0.00 0.00 0.00 0.00 0.00 0.00 0.00 0.00 0.00 0.00 0.00 0.01 0.01 0.00 0.00 0.01 0.00 0.00 0.00 0.00 0.00 0.03 0.02 0.00 0.00 0.00 0.00 0.00 0.00 0.00
0.00 0.00 0.00 0.00 0.00 0.00 0.00 0.00 0.00 0.00 0.00 0.00 0.00 0.00 0.01 0.01 0.00 0.02 0.02 0.00 0.00 0.00 0.00 0.00 0.02 0.01 0.00 0.00 0.00 0.00 0.00 0.00 0.00
0.00 0.00 0.00 0.00 0.00 0.00 0.00 0.00 0.00 0.00 0.00 0.00 0.00 0.00 0.00 0.01 0.00 0.01 0.01 0.00 0.00 0.00 0.00 0.00 0.00 0.01 0.00 0.00 0.00 0.00 0.00 0.00 0.00
0.00 0.00 0.00 0.00 0.00 0.00 0.00 0.00 0.00 0.00 0.00 0.00 0.00 0.00 0.00 0.01 0.02 0.01 0.00 0.00 0.00 0.00 0.00 0.00 0.00 0.00 0.00 0.00 0.00 0.00 0.00 0.00 0.00
0.00 0.00 0.00 0.00 0.00 0.00 0.00 0.00 0.00 0.00 0.00 0.00 0.00 0.00 0.00 0.00 0.01 0.02 0.01 0.00 0.00 0.00 0.00 0.00 0.00 0.00 0.00 0.00 0.00 0.00 0.00 0.00 0.00
0.00 0.00 0.00 0.00 0.00 0.00 0.00 0.00 0.00 0.00 0.00 0.00 0.00 0.00 0.00 0.00 0.00 0.01 0.02 0.00 0.00 0.00 0.00 0.00 0.00 0.00 0.00 0.00 0.00 0.00 0.00 0.00 0.00
0.00 0.00 0.00 0.00 0.00 0.00 0.00 0.00 0.00 0.00 0.00 0.00 0.00 0.00 0.00 0.00 0.00 0.00 0.01 0.01 0.00 0.00 0.00 0.00 0.00 0.00 0.00 0.00 0.00 0.00 0.00 0.00 0.00
0.01 0.00 0.00 0.00 0.00 0.00 0.00 0.00 0.00 0.00 0.00 0.00 0.00 0.00 0.00 0.00 0.00 0.00 0.00 0.00 0.00 0.00 0.00 0.00 0.00 0.00 0.00 0.00 0.00 0.00 0.00 0.00 0.00
0.02 0.01 0.00 0.00 0.00 0.00 0.00 0.00 0.00 0.00 0.00 0.00 0.00 0.00 0.00 0.00 0.00 0.00 0.00 0.00 0.00 0.00 0.00 0.00 0.00 0.00 0.00 0.00 0.00 0.00 0.00 0.00 0.00
MSLP
1018.91 1019.28 1019.59 1019.86 1020.11 1020.33 1020.59 1020.74 1020.75 1020.80 1020.96 1021.11 1021.09 1020.97 1020.93 1021.25 1021.66 1021.76 1021.95 1022.09 1022.21 1022.40 1022.54 1022.68 1022.86 1023.00 1023.06 1023.15 1023.04 1023.05 1023.14 1023.29 1023.37
1019.07 1019.47 1019.77 1020.00 1020.25 1020.52 1020.77 1020.95 1021.07 1021.11 1021.16 1021.28 1021.35 1021.29 1021.34 1021.57 1021.88 1022.08 1022.32 1022.42 1022.57 1022.70 1022.86 1023.03 1023.24 1023.38 1023.41 1023.49 1023.49 1023.73 1023.69 1023.84 1023.99
1019.20 1019.56 1019.94 1020.19 1020.44 1020.64 1020.92 1021.13 1021.24 1021.32 1021.43 1021.50 1021.57 1021.61 1021.61 1021.78 1022.14 1022.48 1022.72 1022.77 1022.87 1023.05 1023.26 1023.42 1023.59 1023.66 1023.68 1023.83 1024.03 1024.31 1024.44 1024.41 1024.53
1019.27 1019.67 1019.97 1020.33 1020.63 1020.88 1021.09 1021.30 1021.47 1021.49 1021.66 1021.80 1021.83 1021.82 1021.76 1021.96 1022.31 1022.71 1023.00 1023.05 1023.23 1023.38 1023.59 1023.69 1023.85 1023.99 1024.12 1024.24 1024.59 1024.73 1024.90 1024.93 1025.06
1019.43 1019.78 1020.04 1020.30 1020.69 1020.99 1021.24 1021.45 1021.64 1021.74 1021.80 1022.03 1022.01 1022.10 1022.14 1022.25 1022.52 1022.92 1023.14 1023.20 1023.44 1023.67 1023.87 1024.06 1024.27 1024.38 1024.55 1024.74 1025.16 1025.23 1025.37 1025.47 1025.52
1019.57 1019.81 1020.16 1020.42 1020.80 1021.04 1021.32 1021.58 1021.81 1021.95 1021.93 1022.07 1022.14 1022.32 1022.51 1022.49 1022.64 1023.09 1023.29 1023.41 1023.61 1023.87 1024.14 1024.38 1024.55 1024.76 1024.88 1025.18 1025.53 1025.70 1025.81 1025.93 1025.91
1019.49 1019.81 1020.15 1020.48 1020.85 1021.12 1021.38 1021.68 1021.95 1022.08 1022.19 1022.18 1022.25 1022.56 1022.59 1022.70 1022.87 1023.17 1023.34 1023.52 1023.82 1024.15 1024.42 1024.61 1024.77 1025.08 1025.22 1025.45 1025.88 1026.07 1026.20 1026.28 1026.44
1019.47 1019.89 1020.12 1020.61 1020.92 1021.29 1021.49 1021.83 1022.09 1022.19 1022.30 1022.31 1022.38 1022.41 1022.83 1022.87 1023.06 1023.26 1023.44 1023.74 1024.02 1024.36 1024.61 1024.83 1025.09 1025.23 1025.52 1025.81 1026.07 1026.39 1026.60 1026.69 1026.81
1019.37 1019.75 1019.93 1020.44 1020.99 1021.35 1021.51 1021.82 1022.10 1022.15 1022.13 1022.16 1022.32 1022.36 1022.65 1022.81 1023.08 1023.34 1023.49 1023.67 1024.13 1024.44 1024.70 1025.03 1025.32 1025.43 1025.63 1026.15 1026.31 1026.72 1026.88 1027.05 1027.16
1019.08 1019.51 1019.68 1020.27 1020.79 1021.17 1021.50 1021.63 1021.95 1022.24 1022.05 1022.03 1022.17 1022.40 1022.35 1022.70 1023.03 1023.40 1023.53 1023.76 1024.18 1024.41 1024.74 1025.05 1025.46 1025.60 1025.99 1026.41 1026.67 1026.96 1027.10 1027.34 1027.43
1018.78 1019.11 1019.47 1019.74 1020.24 1020.84 1021.08 1021.30 1021.71 1021.96 1022.03 1022.03 1022.18 1022.33 1022.29 1022.78 1023.08 1023.44 1023.59 1023.81 1024.20 1024.45 1024.68 1024.96 1025.43 1025.68 1026.08 1026.66 1026.93 1027.13 1027.29 1027.52 1027.77
1018.29 1018.87 1019.38 1019.29 1019.77 1020.37 1020.76 1021.09 1021.29 1021.82 1021.77 1021.95 1022.09 1022.18 1022.67 1023.05 1023.27 1023.40 1023.61 1023.88 1024.22 1024.48 1024.65 1024.87 1025.37 1025.70 1025.97 1026.75 1027.07 1027.29 1027.51 1027.74 1027.94
1017.79 1018.37 1018.87 1019.06 1019.55 1019.89 1020.49 1021.01 1021.37 1021.52 1021.95 1022.12 1022.14 1022.37 1022.64 1023.06 1023.33 1023.45 1023.58 1023.86 1024.21 1024.52 1024.78 1024.94 1025.27 1025.63 1025.86 1026.57 1027.06 1027.40 1027.73 1027.88 1028.12
1017.32 1017.93 1018.47 1018.56 1019.36 1019.53 1020.15 1020.78 1020.97 1021.55 1021.95 1022.24 1022.33 1022.39 1022.69 1023.04 1023.30 1023.58 1023.58 1023.90 1024.24 1024.53 1024.84 1025.19 1025.50 1025.70 1025.93 1026.33 1026.95 1027.38 1027.76 1028.01 1028.28
1016.86 1017.49 1018.05 1018.31 1018.93 1019.47 1019.85 1020.42 1020.96 1021.27 1021.75 1022.28 1022.78 1022.88 1022.99 1023.15 1023.31 1023.52 1023.65 1023.96 1024.14 1024.50 1024.89 1025.29 1025.68 1025.77 1025.97 1026.23 1026.75 1027.26 1027.70 1027.98 1028.24
1016.13 1016.95 1017.56 1018.03 1018.59 1019.04 1019.47 1020.02 1020.69 1021.27 1021.52 1022.35 1023.02 1023.34 1023.42 1023.50 1023.48 1023.39 1023.66 1023.97 1024.15 1024.50 1024.80 1025.35 1025.62 1025.70 1025.98 1026.23 1026.47 1026.98 1027.51 1027.81 1028.13
1015.58 1016.41 1017.08 1017.58 1018.28 1018.67 1019.13 1019.47 1020.53 1020.99 1021.17 1022.09 1023.11 1023.75 1023.81 1023.70 1023.72 1023.55 1023.77 1023.90 1024.09 1024.47 1024.82 1025.18 1025.65 1025.68 1025.93 1026.33 1026.55 1026.82 1027.22 1027.62 1027.98
1014.83 1015.47 1016.23 1017.30 1017.76 1018.24 1018.72 1019.02 1019.58 1020.72 1021.16 1021.06 1022.12 1023.61 1023.57 1023.69 1023.87 1023.77 1023.78 1023.81 1024.00 1024.29 1024.63 1025.05 1025.37 1025.62 1025.86 1026.17 1026.50 1026.80 1027.06 1027.31 1027.63
1014.21 1014.85 1015.50 1016.35 1017.16 1017.74 1018.16 1018.51 1018.84 1019.86 1020.77 1021.23 1021.29 1021.69 1022.22 1023.04 1024.07 1023.97 1023.83 1023.81 1023.93 1024.03 1024.43 1024.71 1024.94 1025.32 1025.75 1025.88 1026.19 1026.53 1026.90 1027.10 1027.26
1013.70 1014.11 1014.72 1015.44 1015.97 1016.95 1017.65 1018.06 1018.14 1018.82 1019.74 1020.28 1020.99 1021.62 1021.89 1022.06 1022.82 1023.52 1023.60 1023.92 1023.85 1023.61 1024.05 1024.33 1024.42 1024.73 1025.31 1025.59 1025.79 1026.10 1026.35 1026.67 1026.77
Thickness
5719 5718 5718 5717 5716 5716 5715 5716 5717 5719 5719 5719 5719 5720 5721 5720 5717 5716 5714 5712 5710 5709 5707 5705 5703 5701 5699 5697 5697 5696 5693 5690 5687
5717 5716 5715 5715 5715 5714 5713 5713 5714 5715 5716 5716 5716 5717 5717 5717 5715 5713 5711 5709 5707 5706 5705 5702 5700 5698 5696 5695 5694 5690 5690 5686 5683
5714 5713 5712 5712 5711 5712 5710 5710 5712 5713 5713 5714 5714 5714 5715 5714 5711 5709 5707 5705 5704 5703 5701 5699 5697 5695 5694 5693 5690 5686 5683 5683 5680
5711 5710 5709 5708 5708 5708 5708 5707 5708 5710 5711 5710 5711 5711 5712 5711 5708 5706 5703 5702 5700 5699 5697 5695 5694 5692 5691 5689 5685 5683 5680 5679 5676
5705 5705 5705 5705 5704 5704 5704 5704 5704 5706 5708 5707 5708 5707 5707 5707 5706 5702 5700 5699 5697 5695 5694 5691 5689 5688 5686 5684 5680 5678 5676 5674 5673
5702 5702 5701 5702 5700 5700 5700 5700 5700 5702 5705 5705 5704 5704 5703 5704 5703 5700 5697 5697 5694 5692 5689 5687 5685 5684 5683 5680 5676 5674 5673 5670 5669
5699 5698 5697 5697 5697 5696 5696 5696 5696 5698 5700 5702 5702 5701 5701 5700 5699 5697 5695 5693 5691 5688 5685 5683 5681 5679 5679 5677 5672 5670 5668 5667 5664
5696 5694 5694 5692 5692 5692 5692 5692 5692 5694 5696 5698 5700 5700 5697 5697 5695 5693 5691 5690 5687 5684 5682 5679 5677 5676 5675 5672 5670 5666 5664 5662 5661
5693 5692 5692 5690 5688 5688 5688 5689 5689 5691 5693 5694 5695 5697 5697 5694 5693 5690 5688 5687 5683 5680 5678 5675 5673 5672 5671 5666 5665 5662 5660 5658 5656
5689 5690 5690 5687 5686 5685 5685 5687 5685 5685 5689 5691 5691 5691 5693 5691 5689 5687 5685 5684 5680 5678 5675 5672 5669 5667 5664 5661 5659 5657 5656 5653 5651
5685 5687 5686 5685 5685 5683 5683 5684 5682 5682 5683 5685 5686 5687 5688 5685 5686 5683 5682 5680 5677 5674 5672 5670 5666 5664 5660 5655 5654 5652 5651 5648 5645
5683 5682 5680 5683 5683 5679 5680 5680 5680 5678 5680 5681 5682 5683 5681 5679 5680 5680 5679 5676 5673 5670 5669 5667 5664 5661 5658 5652 5649 5647 5645 5643 5640
5679 5677 5676 5679 5677 5677 5676 5676 5675 5676 5674 5675 5676 5676 5676 5675 5674 5674 5674 5673 5668 5666 5663 5662 5661 5657 5656 5649 5645 5642 5638 5637 5634
5672 5672 5670 5674 5671 5674 5672 5671 5672 5670 5668 5667 5669 5670 5670 5669 5668 5668 5669 5667 5664 5661 5658 5656 5654 5652 5650 5647 5641 5637 5634 5631 5628
5667 5667 5665 5667 5666 5666 5667 5666 5664 5665 5664 5662 5659 5661 5661 5662 5662 5662 5662 5661 5660 5656 5653 5651 5647 5646 5643 5643 5638 5633 5629 5626 5623
5664 5662 5660 5661 5660 5661 5661 5660 5658 5658 5659 5654 5650 5650 5651 5653 5654 5656 5655 5655 5653 5651 5649 5645 5643 5640 5638 5636 5634 5629 5624 5621 5618
5656 5656 5655 5655 5652 5654 5655 5655 5650 5651 5653 5647 5640 5638 5641 5645 5645 5648 5647 5647 5647 5645 5643 5641 5636 5636 5633 5629 5627 5624 5620 5616 5612
5650 5651 5649 5645 5646 5647 5649 5650 5647 5642 5643 5649 5640 5628 5633 5634 5636 5639 5640 5642 5641 5640 5638 5634 5631 5628 5627 5623 5620 5616 5614 5611 5607
5641 5642 5643 5641 5639 5640 5642 5644 5644 5639 5636 5636 5640 5640 5638 5631 5628 5630 5632 5634 5634 5634 5632 5630 5627 5624 5620 5618 5615 5611 5608 5605 5603
5631 5635 5638 5638 5640 5635 5633 5634 5640 5639 5635 5635 5630 5630 5631 5633 5630 5626 5628 5624 5626 5628 5627 5627 5625 5621 5615 5612 5610 5607 5605 5601 5599